Location: Helsinki
(60.1699°N, 24.9384°E)
Time: 14:25:43
(UTC+02:00)

Transit 4A - Pass Details

Date: 04 November 2020
Orbit: 862 x 982 km, 66.8° (Epoch: 26 November)

Event Time Altitude Azimuth Distance (km) Brightness Sun altitude
Rises 14:53:08 0° 216° (SW) 3,629 13.5 6.9°
Reaches altitude 10° 14:55:40 10° 214° (SSW) 2,700 12.9 6.7°
Maximum altitude 15:01:57 68° 133° (SE) 1,050 8.4 6.2°
Drops below altitude 10° 15:08:21 10° 52° (NE) 2,748 9.8 5.7°
Sets 15:10:56 0° 50° (NE) 3,698 10.3 5.4°
